DW1234 Weather Reports


time (UTC)temp
C
wind
direction
speed
KPH
gust
KPH
rain 1hr
cm
rain 24hr
cm
rain mn
cm
humidity
%
barometer
mb
20260506051240 9 355 9.7 19.3 0.00 0.03 0.00 40 1016.1
20260506050749 9 351 11.3 19.3 0.00 0.03 0.03 41 1015.9
20260506050233 9 328 11.3 17.7 0.00 0.03 0.03 41 1015.9
20260506050107 9 346 9.7 17.7 0.00 0.03 0.03 40 1016.0
20260506044733 10 344 9.7 16.1 0.00 0.03 0.03 40 1015.8
20260506044510 9 355 8.0 16.1 0.00 0.03 0.03 40 1015.7
20260506044242 10 355 9.7 16.1 0.00 0.03 0.03 40 1015.6
20260506043724 10 355 9.7 14.5 0.00 0.03 0.03 40 1015.7
20260506043235 10 344 12.9 17.7 0.00 0.03 0.03 40 1015.7
20260506043016 9 360 9.7 17.7 0.00 0.03 0.03 40 1015.7
20260506042748 10 360 12.9 17.7 0.00 0.03 0.03 40 1015.7
20260506042232 10 350 11.3 16.1 0.00 0.03 0.03 40 1015.6
20260506041744 10 348 8.0 14.5 0.00 0.03 0.03 40 1015.6
20260506041516 10 343 8.0 14.5 0.00 0.03 0.03 41 1015.6
20260506041229 10 347 9.7 14.5 0.00 0.03 0.03 40 1015.5
20260506040740 10 360 8.0 14.5 0.00 0.03 0.03 40 1015.4
20260506040247 10 342 8.0 14.5 0.00 0.03 0.03 40 1015.4
20260506040033 10 351 8.0 16.1 0.00 0.03 0.03 40 1015.4
20260506035731 10 355 8.0 16.1 0.00 0.03 0.03 40 1015.4
20260506035306 10 348 9.7 16.1 0.00 0.03 0.03 39 1015.4
20260506034725 10 333 11.3 16.1 0.00 0.03 0.03 39 1015.5
20260506034556 10 360 9.7 17.7 0.00 0.03 0.03 39 1015.5
20260506034237 10 350 9.7 17.7 0.00 0.03 0.03 39 1015.5
20260506033746 10 344 9.7 17.7 0.00 0.03 0.03 39 1015.4
20260506033230 10 345 11.3 17.7 0.00 0.03 0.03 38 1015.4
20260506033058 10 348 9.7 17.7 0.00 0.03 0.03 38 1015.4
20260506032737 10 345 11.3 16.1 0.00 0.03 0.03 38 1015.3
20260506032249 10 5 11.3 16.1 0.00 0.03 0.03 38 1015.3
20260506031738 10 343 11.3 16.1 0.00 0.03 0.03 38 1015.3
20260506031546 10 348 11.3 16.1 0.00 0.03 0.03 38 1015.2
20260506031224 11 360 11.3 17.7 0.00 0.03 0.03 38 1015.2
20260506030736 11 327 11.3 22.5 0.00 0.03 0.03 37 1015.2
20260506030248 11 5 16.1 22.5 0.00 0.03 0.03 37 1015.1
20260506030057 10 342 12.9 25.7 0.00 0.03 0.03 37 1015.1
20260506025732 11 355 12.9 25.7 0.00 0.03 0.03 37 1015.0
20260506025243 11 351 19.3 25.7 0.00 0.03 0.03 36 1014.9
20260506024721 11 355 19.3 25.7 0.00 0.03 0.03 36 1014.7
20260506024552 10 335 14.5 22.5 0.00 0.03 0.03 37 1014.7
20260506024254 11 345 12.9 22.5 0.00 0.03 0.03 37 1014.7
20260506023744 11 9 14.5 24.1 0.00 0.03 0.03 37 1014.7
20260506023230 11 336 16.1 24.1 0.00 0.03 0.03 37 1014.6
20260506023042 11 355 14.5 24.1 0.00 0.03 0.03 37 1014.6
20260506022744 11 345 14.5 24.1 0.00 0.03 0.03 37 1014.5
20260506022229 11 329 14.5 24.1 0.00 0.03 0.03 37 1014.4
20260506021739 11 14 16.1 24.1 0.00 0.03 0.03 37 1014.3
20260506021536 11 342 16.1 25.7 0.00 0.03 0.03 37 1014.3
20260506021247 11 5 17.7 25.7 0.00 0.03 0.03 37 1014.3
20260506020729 11 355 17.7 27.4 0.00 0.03 0.03 37 1014.3
20260506020238 11 346 17.7 29.0 0.00 0.03 0.03 36 1014.3
20260506020036 11 342 16.1 29.0 0.00 0.03 0.03 36 1014.2
20260506015749 11 343 19.3 27.4 0.00 0.03 0.03 36 1014.2
20260506015238 11 334 19.3 25.7 0.00 0.03 0.03 37 1014.0
20260506014723 11 13 16.1 22.5 0.00 0.03 0.03 37 1014.1
20260506014513 11 355 16.1 24.1 0.00 0.03 0.03 37 1014.0
20260506014237 11 335 12.9 24.1 0.00 0.03 0.03 38 1014.0
20260506013745 11 355 14.5 24.1 0.00 0.03 0.03 37 1013.9
20260506013228 11 348 14.5 29.0 0.00 0.03 0.03 37 1013.9
20260506013105 11 5 14.5 29.0 0.00 0.03 0.03 37 1013.9
20260506013006 11 355 14.5 29.0 0.00 0.03 0.03 37 1013.8
20260506012721 11 342 16.1 29.0 0.00 0.03 0.03 37 1013.9
20260506012235 12 360 19.3 27.4 0.00 0.03 0.03 36 1013.8
20260506011721 12 349 19.3 30.6 0.00 0.03 0.03 36 1013.7
20260506011517 11 320 19.3 30.6 0.00 0.03 0.03 36 1013.6
20260506011235 12 342 16.1 30.6 0.00 0.03 0.03 36 1013.7
20260506010745 12 331 17.7 30.6 0.00 0.03 0.03 36 1013.6
20260506010226 12 342 17.7 30.6 0.00 0.03 0.03 35 1013.6
20260506010041 12 360 20.9 35.4 0.00 0.03 0.03 35 1013.4
20260506005739 12 341 17.7 35.4 0.00 0.03 0.03 35 1013.5
20260506005221 12 348 19.3 35.4 0.00 0.03 0.03 35 1013.6
20260506004733 12 355 16.1 29.0 0.00 0.03 0.03 36 1013.5
20260506004525 12 333 17.7 29.0 0.00 0.03 0.03 35 1013.4
20260506004308 12 355 20.9 30.6 0.00 0.03 0.03 35 1013.4
20260506003729 12 344 22.5 33.8 0.00 0.03 0.03 35 1013.3
20260506003243 12 355 17.7 37.0 0.00 0.03 0.03 35 1013.2
20260506003011 12 360 22.5 37.0 0.00 0.03 0.03 35 1012.9
20260506002729 12 336 25.7 37.0 0.00 0.03 0.03 34 1013.2
20260506002305 12 360 19.3 35.4 0.00 0.03 0.03 35 1013.2
20260506001722 12 344 20.9 35.4 0.00 0.03 0.03 34 1013.2
20260506001549 12 313 25.7 35.4 0.00 0.03 0.03 34 1013.0
20260506001235 12 317 17.7 30.6 0.00 0.03 0.03 35 1013.3
20260506000745 12 5 22.5 30.6 0.00 0.03 0.03 34 1013.3
20260506000235 12 350 20.9 29.0 0.00 0.03 0.03 34 1013.2
20260506000011 12 333 20.9 33.8 0.00 0.03 0.03 35 1013.0
20260505235747 13 355 19.3 33.8 0.00 0.03 0.03 35 1013.1
20260505235234 13 350 22.5 33.8 0.00 0.03 0.03 34 1013.1
20260505234746 13 355 22.5 35.4 0.00 0.03 0.03 34 1013.0
20260505234532 13 5 22.5 41.8 0.00 0.03 0.03 35 1012.8
20260505234228 13 346 22.5 41.8 0.00 0.03 0.03 34 1013.0
20260505233738 13 330 30.6 41.8 0.00 0.03 0.03 34 1012.9
20260505233251 13 340 29.0 38.6 0.00 0.03 0.03 34 1012.8
20260505233027 13 327 25.7 33.8 0.00 0.03 0.03 34 1012.6
20260505232732 13 291 19.3 30.6 0.00 0.03 0.03 35 1012.7
20260505232244 13 327 19.3 27.4 0.00 0.03 0.03 35 1012.7
20260505231728 13 339 19.3 30.6 0.00 0.03 0.03 35 1012.7
20260505231519 13 338 17.7 30.6 0.00 0.03 0.03 35 1012.5
20260505231239 13 329 20.9 30.6 0.00 0.03 0.03 34 1012.6
20260505230747 13 326 16.1 30.6 0.00 0.03 0.03 34 1012.7
20260505230236 13 287 17.7 30.6 0.00 0.03 0.03 34 1012.8
20260505230042 13 355 19.3 30.6 0.00 0.03 0.03 34 1012.6
20260505225749 13 336 22.5 30.6 0.00 0.03 0.03 34 1012.8
20260505225231 13 338 19.3 29.0 0.00 0.03 0.03 35 1012.7
20260505224804 13 331 19.3 29.0 0.00 0.03 0.03 35 1012.7
20260505224532 13 355 19.3 29.0 0.00 0.03 0.03 34 1012.5
20260505224231 13 338 19.3 29.0 0.00 0.03 0.03 35 1012.7
20260505223742 14 319 16.1 27.4 0.00 0.03 0.03 35 1012.8
20260505223231 14 325 17.7 27.4 0.00 0.03 0.03 36 1012.7
20260505223021 14 292 16.1 27.4 0.00 0.03 0.03 35 1012.5
20260505222726 14 315 16.1 29.0 0.00 0.03 0.03 35 1012.7
20260505222239 14 306 17.7 29.0 0.00 0.03 0.03 35 1012.7
20260505221749 14 312 19.3 29.0 0.00 0.03 0.03 35 1012.7
20260505221530 14 326 17.7 29.0 0.00 0.03 0.03 36 1012.4
20260505221233 14 5 12.9 19.3 0.00 0.03 0.03 37 1012.7
20260505220740 14 355 11.3 19.3 0.00 0.03 0.03 36 1012.7
20260505220222 14 325 14.5 30.6 0.00 0.03 0.03 36 1012.7
20260505220033 13 290 14.5 30.6 0.00 0.03 0.03 37 1012.4
20260505215735 14 308 16.1 30.6 0.00 0.03 0.03 36 1012.7
20260505215242 14 333 19.3 29.0 0.00 0.03 0.03 36 1012.7
20260505214725 14 355 19.3 35.4 0.00 0.03 0.03 35 1012.8
20260505214558 13 314 19.3 35.4 0.00 0.03 0.03 35 1012.4
20260505214238 14 332 22.5 35.4 0.00 0.03 0.03 36 1012.8
20260505213723 14 317 17.7 30.6 0.00 0.03 0.03 36 1012.8
20260505213236 14 341 20.9 30.6 0.00 0.03 0.03 35 1012.9
20260505213056 14 331 20.9 30.6 0.00 0.03 0.03 36 1012.5
20260505212731 14 331 22.5 30.6 0.00 0.03 0.03 35 1012.8
20260505212225 15 335 12.9 30.6 0.00 0.03 0.03 38 1012.9
20260505211737 14 321 14.5 32.2 0.00 0.03 0.03 38 1013.0
20260505211545 14 5 20.9 32.2 0.00 0.03 0.03 36 1012.7
20260505211224 14 329 22.5 29.0 0.00 0.03 0.03 36 1013.0
20260505210731 15 327 20.9 29.0 0.00 0.03 0.03 36 1013.1
20260505210244 15 323 19.3 37.0 0.00 0.03 0.03 36 1013.1
20260505210058 15 346 19.3 37.0 0.00 0.03 0.03 36 1012.7
20260505205727 15 327 22.5 37.0 0.00 0.03 0.03 35 1013.0
20260505205239 15 326 22.5 33.8 0.00 0.03 0.03 35 1013.0
20260505204723 15 5 14.5 33.8 0.00 0.03 0.03 36 1013.2
20260505204605 15 319 22.5 33.8 0.00 0.03 0.03 34 1012.8
20260505204500 15 336 22.5 33.8 0.00 0.03 0.03 35 1012.7
20260505204238 15 317 19.3 33.8 0.00 0.03 0.03 37 1013.1
20260505203748 15 317 19.3 29.0 0.00 0.03 0.03 36 1013.2
20260505203229 15 342 19.3 30.6 0.00 0.03 0.03 35 1013.2
20260505203015 15 355 17.7 32.2 0.00 0.03 0.03 37 1012.8
20260505202737 15 345 19.3 32.2 0.00 0.03 0.03 35 1013.2
20260505202246 15 325 22.5 32.2 0.00 0.03 0.03 35 1013.3
20260505201731 15 336 17.7 33.8 0.00 0.03 0.03 36 1013.3
20260505201510 15 329 20.9 35.4 0.00 0.03 0.03 35 1013.0
20260505201244 15 325 22.5 35.4 0.00 0.03 0.03 36 1013.4
20260505200733 15 312 20.9 35.4 0.00 0.03 0.03 36 1013.5
20260505200245 16 360 14.5 25.7 0.00 0.03 0.03 37 1013.4
20260505200031 15 35 11.3 22.5 0.00 0.03 0.03 40 1012.9
20260505195735 15 348 12.9 22.5 0.00 0.03 0.03 38 1013.5
20260505195243 15 360 17.7 24.1 0.00 0.03 0.03 35 1013.5
20260505194725 15 321 17.7 27.4 0.00 0.03 0.03 35 1013.6
20260505194544 15 315 19.3 27.4 0.00 0.03 0.03 37 1013.2
20260505194237 15 282 16.1 27.4 0.00 0.03 0.03 38 1013.7
20260505193748 15 347 19.3 37.0 0.00 0.03 0.03 35 1013.6
20260505193230 15 5 20.9 37.0 0.00 0.03 0.03 36 1013.6
20260505193048 15 17 20.9 37.0 0.00 0.03 0.03 36 1013.2
20260505192801 15 332 14.5 24.1 0.00 0.03 0.03 37 1013.7
20260505192224 15 261 16.1 25.7 0.00 0.03 0.03 38 1013.7
20260505191736 15 338 19.3 25.7 0.00 0.03 0.03 37 1013.8
20260505191527 15 323 17.7 27.4 0.00 0.03 0.03 37 1013.2
20260505191243 15 344 16.1 29.0 0.00 0.03 0.03 39 1013.8
20260505190723 15 338 20.9 29.0 0.00 0.03 0.03 37 1013.8
20260505190234 15 347 14.5 20.9 0.00 0.03 0.03 40 1013.9
20260505190027 15 302 11.3 20.9 0.00 0.03 0.03 40 1013.3
20260505185745 15 348 8.0 16.1 0.00 0.03 0.03 40 1013.9
20260505185226 15 290 11.3 16.1 0.00 0.03 0.03 42 1013.9
20260505184758 15 17 6.4 20.9 0.00 0.03 0.03 44 1013.9
20260505184511 15 5 8.0 20.9 0.00 0.03 0.03 43 1013.4
20260505184251 16 300 12.9 20.9 0.00 0.03 0.03 42 1014.1
20260505183728 15 308 11.3 29.0 0.00 0.03 0.03 42 1014.0
20260505183238 15 355 11.3 33.8 0.00 0.03 0.03 40 1014.2
20260505183016 15 355 17.7 33.8 0.00 0.03 0.03 39 1013.5
20260505182722 15 338 24.1 33.8 0.00 0.03 0.03 40 1014.2
20260505182235 15 325 16.1 29.0 0.00 0.03 0.03 41 1014.2
20260505181746 15 350 16.1 29.0 0.00 0.03 0.03 40 1014.3
20260505181554 15 344 12.9 29.0 0.00 0.03 0.03 44 1013.7
20260505181238 14 318 6.4 17.7 0.00 0.03 0.03 45 1014.3
20260505180748 15 317 12.9 27.4 0.00 0.03 0.03 41 1014.3
20260505180230 15 325 19.3 27.4 0.00 0.03 0.03 44 1014.3
20260505180106 14 290 11.3 24.1 0.00 0.03 0.03 46 1013.7
20260505175737 14 313 6.4 20.9 0.00 0.03 0.03 50 1014.4
20260505175249 14 302 11.3 22.5 0.00 0.03 0.03 46 1014.3
20260505174732 13 11 14.5 22.5 0.00 0.03 0.03 43 1014.2
20260505174604 13 28 16.1 22.5 0.00 0.03 0.03 42 1013.6
20260505174307 14 360 17.7 24.1 0.00 0.03 0.03 44 1014.3
20260505173729 14 326 12.9 25.7 0.00 0.03 0.03 43 1014.3
20260505173242 15 340 14.5 24.1 0.00 0.03 0.03 44 1014.4
20260505173042 13 320 9.7 24.1 0.00 0.03 0.03 45 1013.9
20260505172723 14 15 9.7 24.1 0.00 0.03 0.03 45 1014.6
20260505172229 13 13 12.9 24.1 0.00 0.03 0.03 43 1014.6
20260505171744 13 324 12.9 24.1 0.00 0.03 0.03 47 1014.6
20260505171541 13 329 4.8 24.1 0.00 0.03 0.03 46 1013.9
20260505171230 13 321 14.5 24.1 0.00 0.03 0.03 44 1014.7
20260505170738 13 302 9.7 19.3 0.00 0.03 0.03 50 1014.6
20260505170221 13 325 12.9 19.3 0.00 0.03 0.03 49 1014.7
20260505170041 12 305 12.9 19.3 0.00 0.03 0.03 48 1013.9
20260505165750 12 321 12.9 19.3 0.00 0.03 0.03 50 1014.6
20260505165240 12 328 12.9 19.3 0.00 0.03 0.03 51 1014.6
20260505164723 12 319 12.9 20.9 0.00 0.03 0.03 52 1014.6
20260505164524 12 325 9.7 22.5 0.00 0.03 0.03 53 1013.9
20260505164232 12 318 16.1 22.5 0.00 0.03 0.03 53 1014.6
20260505163743 12 327 14.5 22.5 0.00 0.03 0.03 53 1014.7
20260505163226 12 336 12.9 19.3 0.00 0.03 0.03 54 1014.6
20260505163026 11 308 11.3 19.3 0.00 0.03 0.03 56 1013.9
20260505162739 11 355 14.5 19.3 0.00 0.03 0.03 55 1014.4
20260505162223 11 320 12.9 17.7 0.00 0.03 0.03 57 1014.4
20260505161732 12 348 11.3 19.3 0.00 0.03 0.03 57 1014.3
20260505161536 11 355 9.7 19.3 0.00 0.03 0.03 57 1013.5
20260505161245 11 334 14.5 19.3 0.00 0.03 0.03 54 1014.3
20260505160726 11 331 9.7 16.1 0.00 0.03 0.03 58 1014.3
20260505160231 11 345 9.7 16.1 0.00 0.03 0.03 60 1014.3
20260505153306 11 355 12.9 17.7 0.00 0.03 0.03 55 1014.2
20260505153056 11 334 9.7 16.1 0.00 0.03 0.03 57 1013.4
20260505152729 11 344 6.4 12.9 0.00 0.03 0.03 57 1014.2
20260505152243 11 317 6.4 9.7 0.00 0.03 0.03 58 1014.0
20260505151724 11 294 6.4 11.3 0.00 0.03 0.03 58 1014.0
20260505151604 11 355 6.4 12.9 0.00 0.03 0.03 56 1013.1
20260505151237 11 340 6.4 14.5 0.00 0.03 0.03 56 1013.9
20260505150747 11 348 8.0 16.1 0.00 0.03 0.03 55 1013.7
20260505150237 11 22 9.7 16.1 0.00 0.03 0.03 54 1013.7
20260505140230 10 334 6.4 12.9 0.00 0.03 0.03 61 1013.5
20260505130233 9 315 3.2 6.4 0.00 0.03 0.03 69 1012.8
20260505124735 8 323 4.8 9.7 0.00 0.03 0.03 71 1012.6
20260505124540 8 319 4.8 9.7 0.00 0.03 0.03 71 1011.6
20260505124248 8 327 6.4 9.7 0.00 0.03 0.03 72 1012.4
20260505123728 8 326 6.4 9.7 0.00 0.03 0.03 74 1012.3
20260505123241 8 338 6.4 9.7 0.00 0.03 0.03 74 1012.0
20260505123035 8 325 6.4 12.9 0.00 0.03 0.03 75 1011.0
20260505122723 8 337 6.4 12.9 0.00 0.03 0.03 75 1011.8
20260505122235 8 332 6.4 12.9 0.00 0.03 0.03 76 1011.8
20260505121801 8 351 8.0 12.9 0.00 0.03 0.03 78 1011.8
20260505121518 8 360 4.8 9.7 0.00 0.03 0.03 79 1010.9
20260505121254 8 333 4.8 6.4 0.00 0.03 0.03 79 1011.8
20260505120742 8 341 4.8 6.4 0.00 0.03 0.03 80 1011.7
20260505120225 8 341 3.2 4.8 0.00 0.03 0.03 80 1011.6
20260505120005 8 355 1.6 4.8 0.00 0.03 0.03 80 1010.6
20260505115737 8 355 3.2 4.8 0.00 0.03 0.03 80 1011.6
20260505115247 8 355 3.2 6.4 0.00 0.03 0.03 81 1011.5
20260505114734 8 355 4.8 6.4 0.00 0.03 0.03 81 1011.3
20260505114531 8 355 3.2 8.0 0.00 0.03 0.03 81 1010.4
20260505114248 8 355 4.8 8.0 0.00 0.03 0.03 81 1011.2
20260505113730 8 5 6.4 8.0 0.00 0.03 0.03 81 1011.2
20260505113242 8 355 6.4 8.0 0.00 0.03 0.03 81 1011.2
20260505113030 8 360 4.8 8.0 0.00 0.03 0.03 81 1010.2
20260505112726 8 5 6.4 8.0 0.00 0.03 0.03 81 1011.2
20260505112236 8 5 6.4 8.0 0.00 0.03 0.03 80 1011.1
20260505111749 8 360 6.4 6.4 0.00 0.03 0.03 80 1011.2
20260505111525 8 360 4.8 6.4 0.00 0.03 0.03 80 1010.3
20260505111242 8 360 4.8 6.4 0.00 0.03 0.03 80 1011.3
20260505110749 8 253 4.8 6.4 0.00 0.03 0.03 79 1011.2
20260505110233 8 253 4.8 4.8 0.00 0.03 0.03 79 1011.2
20260505101721 8 253 3.2 4.8 0.00 0.03 0.03 79 1011.6
20260505101533 8 253 3.2 4.8 0.00 0.03 0.03 79 1010.6
20260505101234 8 253 3.2 4.8 0.00 0.03 0.03 79 1011.5
20260505100744 8 253 3.2 6.4 0.00 0.03 0.03 80 1011.5
20260505100229 9 253 4.8 6.4 0.00 0.03 0.03 80 1011.6
20260505100033 8 253 3.2 6.4 0.00 0.03 0.03 79 1010.7
20260505095742 9 267 4.8 6.4 0.00 0.03 0.03 79 1011.6
20260505095225 9 268 4.8 6.4 0.00 0.03 0.03 80 1011.6
20260505094733 9 240 4.8 6.4 0.00 0.03 0.03 79 1011.6
20260505094541 8 229 1.6 6.4 0.00 0.03 0.03 79 1010.6
20260505094248 9 229 3.2 6.4 0.00 0.03 0.03 79 1011.6
20260505093728 9 243 3.2 6.4 0.00 0.03 0.03 78 1011.5
20260505093240 9 275 3.2 6.4 0.00 0.03 0.03 77 1011.3
20260505093042 9 270 3.2 6.4 0.00 0.03 0.03 77 1010.4
20260505092723 9 296 4.8 6.4 0.00 0.03 0.03 77 1011.3
20260505092233 9 280 3.2 6.4 0.00 0.03 0.03 76 1011.2
20260505091744 9 303 4.8 6.4 0.00 0.03 0.03 76 1011.1
20260505091527 9 307 4.8 6.4 0.00 0.03 0.03 76 1010.0
20260505091229 9 306 4.8 6.4 0.00 0.03 0.03 76 1010.9
20260505090756 9 317 4.8 6.4 0.03 0.03 0.03 76 1010.8
20260505090245 9 319 3.2 4.8 0.03 0.03 0.03 76 1010.5
20260505090048 9 319 3.2 4.8 0.03 0.03 0.03 76 1009.6
20260505085735 10 319 3.2 4.8 0.03 0.03 0.03 76 1010.6
20260505085247 10 271 3.2 4.8 0.03 0.03 0.03 76 1010.5
20260505084731 10 271 3.2 6.4 0.03 0.03 0.03 76 1010.5
20260505084555 9 271 1.6 6.4 0.03 0.03 0.03 76 1009.6
20260505084245 10 267 4.8 6.4 0.03 0.03 0.03 76 1010.6
20260505083728 10 256 3.2 8.0 0.03 0.03 0.03 76 1010.6
20260505083235 10 258 4.8 8.0 0.03 0.03 0.03 75 1010.6
20260505083006 9 264 4.8 8.0 0.03 0.03 0.03 75 1009.6
20260505082806 10 259 4.8 12.9 0.03 0.03 0.03 75 1010.6
20260505082231 10 280 6.4 12.9 0.03 0.03 0.03 74 1010.7
20260505081742 10 289 8.0 11.3 0.03 0.03 0.03 72 1010.5
20260505081554 9 288 4.8 8.0 0.03 0.03 0.03 71 1009.4
20260505081226 10 292 4.8 6.4 0.03 0.03 0.03 71 1010.3
20260505080736 10 320 3.2 4.8 0.00 0.00 0.00 70 1009.9
20260505080255 10 320 3.2 8.0 0.00 0.00 0.00 69 1009.8
20260505080038 9 329 3.2 8.0 0.00 0.00 0.00 70 1008.7
20260505075751 10 345 4.8 8.0 0.00 0.00 0.00 70 1009.9
20260505075308 10 311 6.4 8.0 0.00 0.00 0.00 69 1010.0
20260505074830 10 299 4.8 6.4 0.00 0.00 0.00 69 1009.9
20260505074545 10 317 3.2 6.4 0.00 0.00 0.00 69 1008.9
20260505074234 10 317 3.2 6.4 0.00 0.00 0.00 69 1009.8
20260505073746 10 317 3.2 6.4 0.00 0.00 0.00 68 1009.8
20260505073230 10 284 6.4 6.4 0.00 0.00 0.00 68 1010.1
20260505073046 10 284 4.8 6.4 0.00 0.00 0.00 67 1009.2
20260505072736 10 280 3.2 4.8 0.00 0.00 0.00 67 1010.2
20260505072247 10 5 1.6 4.8 0.00 0.00 0.00 66 1009.8
20260505071729 10 5 1.6 4.8 0.00 0.00 0.00 65 1009.8
20260505071556 10 5 1.6 6.4 0.00 0.00 0.00 65 1008.8
20260505071302 10 5 3.2 6.4 0.00 0.00 0.00 64 1009.8
20260505070722 10 11 3.2 4.8 0.00 0.00 0.00 64 1009.7
20260505070233 10 11 1.6 4.8 0.00 0.00 0.00 63 1009.9
20260505070031 10 44 1.6 4.8 0.00 0.00 0.00 63 1008.9
20260505065742 10 34 1.6 4.8 0.00 0.00 0.00 63 1009.8
20260505065230 10 5 1.6 4.8 0.00 0.00 0.00 63 1009.9
20260505064743 10 5 3.2 6.4 0.00 0.00 0.00 62 1009.8
20260505064512 10 5 1.6 6.4 0.00 0.00 0.00 62 1008.8
20260505064229 10 5 3.2 8.0 0.00 0.00 0.00 62 1009.8
20260505063739 11 348 4.8 12.9 0.00 0.00 0.00 61 1010.0
20260505063250 11 26 8.0 12.9 0.00 0.00 0.00 61 1009.7
20260505063003 10 15 8.0 14.5 0.00 0.00 0.00 60 1008.9
20260505062732 11 5 8.0 17.7 0.00 0.00 0.00 60 1009.9
20260505062242 11 347 11.3 19.3 0.00 0.00 0.00 58 1010.1
20260505061726 11 5 14.5 19.3 0.00 0.00 0.00 56 1010.3
20260505061509 11 14 14.5 22.5 0.00 0.00 0.00 56 1009.3
20260505061236 11 360 11.3 22.5 0.00 0.00 0.00 56 1010.3
20260505060746 11 43 16.1 22.5 0.00 0.00 0.00 55 1009.8
20260505060234 11 322 9.7 22.5 0.00 0.00 0.00 55 1009.8
20260505060100 11 18 12.9 25.7 0.00 0.00 0.00 54 1008.7